H1 CPF 2 NER 2023 7 28 9 209 01 glonass140 H2 1903001 9140 44299 2023 7 28 0 0 0 2023 7 31 23 45 0 900 1 1 0 0 0 1 H9 10 0 60153 0.00000 0 -10313708.411 -4218867.912 -22913569.045 10 0 60153 900.00000 0 -9797226.959 -6977994.428 -22461343.557 10 0 60153 1800.00000 0 -9490995.550 -9685066.094 -21571440.020 10 0 60153 2700.00000 0 -9388336.905 -12271715.754 -20261202.242 10 0 60153 3600.00000 0 -9470731.240 -14673077.646 -18556185.770 10 0 60153 4500.00000 0 -9708722.441 -16830278.903 -16489654.616 10 0 60153 5400.00000 0 -10063302.935 -18692687.649 -14101925.112 10 0 60153 6300.00000 0 -10487717.557 -20219823.760 -11439570.146 10 0 60153 7200.00000 0 -10929608.777 -21382852.579 -8554500.033 10 0 60153 8100.00000 0 -11333411.033 -22165599.784 -5502938.841 10 0 60153 9000.00000 0 -11642891.400 -22565045.989 -2344317.225 10 0 60153 9900.00000 0 -11803727.727 -22591281.860 859895.478 10 0 60153 10800.00000 0 -11766013.977 -22266927.576 4047395.969 10 0 60153 11700.00000 0 -11486586.064 -21626043.103 7156264.082 10 0 60153 12600.00000 0 -10931069.358 -20712577.248 10126167.786 10 0 60153 13500.00000 0 -10075561.367 -19578422.672 12899532.268 10 0 60153 14400.00000 0 -8907878.794 -18281160.211 15422650.468 10 0 60153 15300.00000 0 -7428316.863 -16881588.387 17646713.964 10 0 60153 16200.00000 0 -5649889.412 -15441142.319 19528745.167 10 0 60153 17100.00000 0 -3598039.963 -14019310.096 21032414.097 10 0 60153 18000.00000 0 -1309835.914 -12671154.145 22128725.393 10 0 60153 18900.00000 0 1167320.870 -11445040.071 22796563.949 10 0 60153 19800.00000 0 3777414.099 -10380666.349 23023090.128 10 0 60153 20700.00000 0 6457893.383 -9507475.490 22803978.257 10 0 60153 21600.00000 0 9142030.026 -8843511.356 22143494.717 10 0 60153 22500.00000 0 11761452.405 -8394768.914 21054414.629 10 0 60153 23400.00000 0 14248757.764 -8155062.508 19557778.690 10 0 60153 24300.00000 0 16540094.073 -8106417.543 17682494.392 10 0 60153 25200.00000 0 18577606.649 -8219969.032 15464788.349 10 0 60153 26100.00000 0 20311649.369 -8457329.638 12947519.094 10 0 60153 27000.00000 0 21702669.592 -8772370.416 10179362.195 10 0 60153 27900.00000 0 22722688.901 -9113340.187 7213881.978 10 0 60153 28800.00000 0 23356317.982 -9425235.126 4108506.475 10 0 60153 29700.00000 0 23601262.950 -9652319.325 923424.361 10 0 60153 30600.00000 0 23468301.291 -9740690.225 -2279575.615 10 0 60153 31500.00000 0 22980727.607 -9640780.467 -5438300.541 10 0 60153 32400.00000 0 22173291.520 -9309689.729 -8491361.525 10 0 60153 33300.00000 0 21090671.528 -8713246.857 -11379370.395 10 0 60153 34200.00000 0 19785548.297 -7827713.482 -14046101.102 10 0 60153 35100.00000 0 18316358.031 -6641055.135 -16439592.515 10 0 60153 36000.00000 0 16744820.260 -5153723.917 -18513170.337 10 0 60153 36900.00000 0 15133344.214 -3378917.338 -20226367.298 10 0 60153 37800.00000 0 13542423.242 -1342300.031 -21545722.894 10 0 60153 38700.00000 0 12028127.342 918802.194 -22445446.285 10 0 60153 39600.00000 0 10639799.875 3356704.014 -22907928.692 10 0 60153 40500.00000 0 9418055.809 5915104.975 -22924094.751 10 0 60153 41400.00000 0 8393166.093 8531204.703 -22493585.410 10 0 60153 42300.00000 0 7583896.312 11138101.095 -21624768.444 10 0 60153 43200.00000 0 6996848.395 13667371.545 -20334576.092 10 0 60153 44100.00000 0 6626332.673 16051729.295 -18648172.822 10 0 60153 45000.00000 0 6454774.928 18227643.606 -16598459.787 10 0 60153 45900.00000 0 6453640.177 20137813.885 -14225425.814 10 0 60153 46800.00000 0 6584832.817 21733394.014 -11575358.092 10 0 60153 47700.00000 0 6802512.373 22975873.688 -8699928.621 10 0 60153 48600.00000 0 7055246.338 23838538.224 -5655175.179 10 0 60153 49500.00000 0 7288407.286 24307446.307 -2500397.724 10 0 60153 50400.00000 0 7446711.139 24381885.736 703007.049 10 0 60153 51300.00000 0 7476787.725 24074289.552 3892749.161 10 0 60153 52200.00000 0 7329673.731 23409617.840 7006862.354 10 0 60153 53100.00000 0 6963121.878 22424233.148 9984910.188 10 0 60153 54000.00000 0 6343628.370 21164318.617 12769157.378 10 0 60153 54900.00000 0 5448093.076 19683906.937 15305683.665 10 0 60153 55800.00000 0 4265042.696 18042604.077 17545419.025 10 0 60153 56700.00000 0 2795365.880 16303103.933 19445081.103 10 0 60153 57600.00000 0 1052529.738 14528598.062 20967997.969 10 0 60153 58500.00000 0 -937731.136 12780188.333 22084801.772 10 0 60153 59400.00000 0 -3138240.278 11114409.512 22773981.504 10 0 60153 60300.00000 0 -5501685.730 9580963.668 23022285.753 10 0 60153 61200.00000 0 -7972353.725 8220759.102 22824968.938 10 0 60153 62100.00000 0 -10488218.960 7064333.684 22185877.297 10 0 60153 63000.00000 0 -12983306.360 6130726.559 21117373.430 10 0 60153 63900.00000 0 -15390228.130 5426843.764 19640100.895 10 0 60153 64800.00000 0 -17642792.746 4947343.126 17782592.908 10 0 60153 65700.00000 0 -19678579.345 4675042.581 15580731.790 10 0 60153 66600.00000 0 -21441372.073 4581834.607 13077068.393 10 0 60153 67500.00000 0 -22883354.237 4630068.666 10320013.208 10 0 60153 68400.00000 0 -23966971.550 4774344.036 7362913.327 10 0 60153 69300.00000 0 -24666386.843 4963638.268 4263031.794 10 0 60153 70200.00000 0 -24968465.178 5143682.141 1080447.930 10 0 60153 71100.00000 0 -24873247.404 5259481.310 -2123100.866 10 0 60153 72000.00000 0 -24393891.315 5257878.165 -5285413.834 10 0 60153 72900.00000 0 -23556081.746 5090045.220 -8345034.970 10 0 60153 73800.00000 0 -22396933.235 4713803.723 -11242450.875 10 0 60153 74700.00000 0 -20963430.334 4095668.065 -13921254.445 10 0 60153 75600.00000 0 -19310470.318 3212527.819 -16329251.102 10 0 60153 76500.00000 0 -17498590.038 2052894.239 -18419485.180 10 0 60153 77400.00000 0 -15591472.227 617656.321 -20151165.582 10 0 60153 78300.00000 0 -13653336.043 -1079687.786 -21490471.833 10 0 60153 79200.00000 0 -11746321.702 -3013336.064 -22411224.047 10 0 60153 80100.00000 0 -9927979.376 -5146013.819 -22895402.988 10 0 60153 81000.00000 0 -8248968.176 -7430297.636 -22933509.528 10 0 60153 81900.00000 0 -6751062.085 -9810377.947 -22524755.943 10 0 60153 82800.00000 0 -5465546.735 -12224187.236 -21677084.909 10 0 60153 83700.00000 0 -4412074.226 -14605805.279 -20407015.571 10 0 60153 84600.00000 0 -3598023.662 -16888040.824 -18739319.505 10 0 60153 85500.00000 0 -3018393.511 -19005081.419 -16706532.941 10 0 60154 0.00000 0 -2656229.191 -20895099.929 -14348315.219 10 0 60154 900.00000 0 -2483566.182 -22502709.071 -11710665.093 10 0 60154 1800.00000 0 -2462847.561 -23781158.300 -8845014.123 10 0 60154 2700.00000 0 -2548753.512 -24694184.180 -5807211.508 10 0 60154 3600.00000 0 -2690363.961 -25217434.248 -2656424.295 10 0 60154 4500.00000 0 -2833560.716 -25339406.274 546025.596 10 0 60154 5400.00000 0 -2923565.729 -25061864.342 3737863.540 10 0 60154 6300.00000 0 -2907506.634 -24399715.650 6857079.151 10 0 60154 7200.00000 0 -2736899.975 -23380354.865 9843133.489 10 0 60154 8100.00000 0 -2369946.529 -22042505.229 12638132.651 10 0 60154 9000.00000 0 -1773541.565 -20434606.686 15187944.976 10 0 60154 9900.00000 0 -924915.400 -18612819.891 17443240.569 10 0 60154 10800.00000 0 187164.476 -16638730.563 19360433.926 10 0 60154 11700.00000 0 1561679.816 -14576850.481 20902512.657 10 0 60154 12600.00000 0 3185166.164 -12492019.219 22039737.747 10 0 60154 13500.00000 0 5032043.636 -10446814.119 22750203.446 10 0 60154 14400.00000 0 7065460.377 -8499075.008 23020247.519 10 0 60154 15300.00000 0 9238614.213 -6699645.010 22844705.254 10 0 60154 16200.00000 0 11496498.536 -5090419.468 22227003.319 10 0 60154 17100.00000 0 13778001.303 -3702782.231 21179092.178 10 0 60154 18000.00000 0 16018271.588 -2556492.571 19721218.416 10 0 60154 18900.00000 0 18151257.176 -1659067.635 17881540.915 10 0 60154 19800.00000 0 20112309.520 -1005685.056 15695597.382 10 0 60154 20700.00000 0 21840749.238 -579609.208 13205630.341 10 0 60154 21600.00000 0 23282286.563 -353122.997 10459784.194 10 0 60154 22500.00000 0 24391196.614 -288926.293 7511187.397 10 0 60154 23400.00000 0 25132158.886 -341942.630 4416936.155 10 0 60154 24300.00000 0 25481683.798 -461458.557 1236998.179 10 0 60154 25200.00000 0 25429065.869 -593505.887 -1966943.135 10 0 60154 26100.00000 0 24976822.448 -683386.378 -5132682.114 10 0 60154 27000.00000 0 24140598.264 -678232.038 -8198698.786 10 0 60154 27900.00000 0 22948538.420 -529492.145 -11105357.741 10 0 60154 28800.00000 0 21440154.740 -195240.769 -13796074.026 10 0 60154 29700.00000 0 19664731.957 357794.245 -16218422.716 10 0 60154 30600.00000 0 17679339.680 1152568.441 -18325169.722 10 0 60154 31500.00000 0 15546533.016 2200496.381 -20075202.865 10 0 60154 32400.00000 0 13331838.030 3500719.574 -21434344.232 10 0 60154 33300.00000 0 11101127.406 5039899.841 -22376027.164 10 0 60154 34200.00000 0 8917996.547 6792548.822 -22881823.961 10 0 60154 35100.00000 0 6841250.300 8721881.639 -22941813.388 10 0 60154 36000.00000 0 4922605.858 10781160.326 -22554780.308 10 0 60154 36900.00000 0 3204708.256 12915471.695 -21728243.127 10 0 60154 37800.00000 0 1719541.549 15063865.696 -20478308.238 10 0 60154 38700.00000 0 487301.922 17161764.864 -18829354.146 10 0 60154 39600.00000 0 -484220.690 19143543.625 -16813551.468 10 0 60154 40500.00000 0 -1199727.606 20945168.923 -14470228.386 10 0 60154 41400.00000 0 -1675960.972 22506790.864 -11845094.356 10 0 60154 42300.00000 0 -1940738.658 23775174.048 -8989337.921 10 0 60154 43200.00000 0 -2031517.280 24705867.126 -5958617.100 10 0 60154 44100.00000 0 -1993546.198 25265019.268 -2811963.083 10 0 60154 45000.00000 0 -1877692.678 25430767.411 389380.192 10 0 60154 45900.00000 0 -1738032.244 25194136.561 3583156.843 10 0 60154 46800.00000 0 -1629307.894 24559416.280 6707315.810 10 0 60154 47700.00000 0 -1604367.003 23543998.786 9701219.095 10 0 60154 48600.00000 0 -1711685.207 22177686.916 12506817.528 10 0 60154 49500.00000 0 -1993082.288 20501502.380 15069771.235 10 0 60154 50400.00000 0 -2481726.481 18566045.534 17340493.437 10 0 60154 51300.00000 0 -3200510.958 16429476.203 19275098.244 10 0 60154 52200.00000 0 -4160870.302 14155200.378 20836235.303 10 0 60154 53100.00000 0 -5362086.178 11809359.175 21993796.646 10 0 60154 54000.00000 0 -6791110.902 9458224.011 22725483.666 10 0 60154 54900.00000 0 -8422916.252 7165605.123 23017224.826 10 0 60154 55800.00000 0 -10221353.254 4990379.546 22863437.370 10 0 60154 56700.00000 0 -12140487.814 2984239.322 22267129.009 10 0 60154 57600.00000 0 -14126357.724 1189751.398 21239838.149 10 0 60154 58500.00000 0 -16119079.345 -361192.109 19801413.918 10 0 60154 59400.00000 0 -18055217.961 -1648470.599 17979639.785 10 0 60154 60300.00000 0 -19870324.850 -2664334.412 15809707.188 10 0 60154 61200.00000 0 -21501536.989 -3413482.932 13333548.139 10 0 60154 62100.00000 0 -22890132.287 -3912618.709 10599038.297 10 0 60154 63000.00000 0 -23983934.634 -4189496.401 7659084.435 10 0 60154 63900.00000 0 -24739468.599 -4281506.269 4570612.598 10 0 60154 64800.00000 0 -25123773.468 -4233851.475 1393475.369 10 0 60154 65700.00000 0 -25115799.961 -4097395.538 -1810701.467 10 0 60154 66600.00000 0 -24707329.900 -3926270.513 -4979710.965 10 0 60154 67500.00000 0 -23903378.798 -3775346.906 -8051972.782 10 0 60154 68400.00000 0 -22722062.802 -3697672.576 -10967732.992 10 0 60154 69300.00000 0 -21193933.914 -3741989.708 -13670232.122 10 0 60154 70200.00000 0 -19360809.844 -3950435.967 -16106817.966 10 0 60154 71100.00000 0 -17274146.245 -4356528.570 -18229980.732 10 0 60154 72000.00000 0 -14993018.616 -4983518.216 -19998289.435 10 0 60154 72900.00000 0 -12581797.766 -5843184.378 -21377210.449 10 0 60154 73800.00000 0 -10107615.816 -6935124.789 -22339791.470 10 0 60154 74700.00000 0 -7637728.776 -8246571.039 -22867196.809 10 0 60154 75600.00000 0 -5236886.101 -9752739.818 -22949082.975 10 0 60154 76500.00000 0 -2964817.438 -11417706.531 -22583806.682 10 0 60154 77400.00000 0 -873941.853 -13195765.675 -21778460.807 10 0 60154 78300.00000 0 992604.632 -15033221.537 -20548737.302 10 0 60154 79200.00000 0 2602540.874 -16870534.312 -18918619.569 10 0 60154 80100.00000 0 3935546.527 -18644731.381 -16919910.310 10 0 60154 81000.00000 0 4983856.615 -20291982.053 -14591604.288 10 0 60154 81900.00000 0 5752321.189 -21750226.987 -11979118.642 10 0 60154 82800.00000 0 6257929.256 -22961751.018 -9133396.447 10 0 60154 83700.00000 0 6528819.122 -23875590.538 -6109901.907 10 0 60154 84600.00000 0 6602819.112 -24449673.715 -2967527.780 10 0 60154 85500.00000 0 6525582.605 -24652603.245 232562.459 10 0 60155 0.00000 0 6348398.463 -24465006.880 3428133.732 10 0 60155 900.00000 0 6125771.290 -23880399.241 6557097.087 10 0 60155 1800.00000 0 5912875.793 -22905519.896 9558717.220 10 0 60155 2700.00000 0 5762993.668 -21560134.263 12374791.561 10 0 60155 3600.00000 0 5725042.240 -19876307.027 14950773.717 10 0 60155 4500.00000 0 5841299.255 -17897179.637 17236821.534 10 0 60155 5400.00000 0 6145419.521 -15675303.869 19188750.032 10 0 60155 6300.00000 0 6660826.330 -13270601.587 20768871.997 10 0 60155 7200.00000 0 7399544.587 -10748035.778 21946711.394 10 0 60155 8100.00000 0 8361523.959 -8175089.287 22699577.437 10 0 60155 9000.00000 0 9534479.955 -5619154.978 23012989.777 10 0 60155 9900.00000 0 10894259.443 -3144944.225 22880947.929 10 0 60155 10800.00000 0 12405715.667 -812019.373 22306040.803 10 0 60155 11700.00000 0 14024056.979 1327449.513 21299394.770 10 0 60155 12600.00000 0 15696614.153 3230612.565 19880461.383 10 0 60155 13500.00000 0 17364954.032 4865474.579 18076648.448 10 0 60155 14400.00000 0 18967252.948 6211973.885 15922800.718 10 0 60155 15300.00000 0 20440832.437 7262561.916 13460539.075 10 0 60155 16200.00000 0 21724752.718 8022260.151 10737469.577 10 0 60155 17100.00000 0 22762356.597 8508192.436 7806276.167 10 0 60155 18000.00000 0 23503657.843 8748612.308 4723713.259 10 0 60155 18900.00000 0 23907474.021 8781465.969 1549516.511 10 0 60155 19800.00000 0 23943213.783 8652550.978 -1654748.021 10 0 60155 20700.00000 0 23592242.541 8413347.961 -4826874.505 10 0 60155 21600.00000 0 22848767.678 8118616.651 -7905224.807 10 0 60155 22500.00000 0 21720204.346 7823857.885 -10829929.187 10 0 60155 23400.00000 0 20227004.555 7582749.303 -13544056.380 10 0 60155 24300.00000 0 18401954.853 7444663.929 -15994729.606 10 0 60155 25200.00000 0 16288970.305 7452377.730 -18134166.004 10 0 60155 26100.00000 0 13941433.918 7640064.468 -19920618.310 10 0 60155 27000.00000 0 11420149.940 8031664.213 -21319199.606 10 0 60155 27900.00000 0 8790995.951 8639696.155 -22302574.221 10 0 60155 28800.00000 0 6122371.551 9464567.521 -22851500.599 10 0 60155 29700.00000 0 3482550.142 10494409.353 -22955214.884 10 0 60155 30600.00000 0 937044.472 11705447.476 -22611647.235 10 0 60155 31500.00000 0 -1453903.848 13062894.068 -21827466.224 10 0 60155 32400.00000 0 -3637605.925 14522323.075 -20617950.138 10 0 60155 33300.00000 0 -5570883.004 16031471.875 -19006687.556 10 0 60155 34200.00000 0 -7221618.193 17532393.321 -17025113.028 10 0 60155 35100.00000 0 -8569838.250 18963867.193 -14711887.148 10 0 60155 36000.00000 0 -9608281.238 20263968.882 -12112133.483 10 0 60155 36900.00000 0 -10342427.696 21372686.309 -9276547.947 10 0 60155 37800.00000 0 -10789995.962 22234474.004 -6260398.832 10 0 60155 38700.00000 0 -10979925.088 22800636.001 -3122438.026 10 0 60155 39600.00000 0 -10950890.563 23031436.600 76254.174 10 0 60155 40500.00000 0 -10749417.861 22897849.849 3273467.006 10 0 60155 41400.00000 0 -10427675.712 22382874.208 6407075.572 10 0 60155 42300.00000 0 -10041044.221 21482357.516 9416251.043 10 0 60155 43200.00000 0 -9645562.063 20205298.334 12242640.703 10 0 60155 44100.00000 0 -9295361.501 18573611.895 14831494.882 10 0 60155 45000.00000 0 -9040199.894 16621371.438 17132719.225 10 0 60155 45900.00000 0 -8923191.617 14393557.405 19101832.731 10 0 60155 46800.00000 0 -8978835.371 11944367.274 20700814.221 10 0 60155 47700.00000 0 -9231419.017 9335156.562 21898822.273 10 0 60155 48600.00000 0 -9693867.980 6632096.281 22672776.328 10 0 60155 49500.00000 0 -10367084.692 3903643.250 23007789.280 10 0 60155 50400.00000 0 -11239806.145 1217926.898 22897444.580 10 0 60155 51300.00000 0 -12288985.297 -1359840.875 22343913.526 10 0 60155 52200.00000 0 -13480680.648 -3769827.414 21357911.125 10 0 60155 53100.00000 0 -14771417.482 -5959812.636 19958491.458 10 0 60155 54000.00000 0 -16109964.993 -7887103.324 18172686.178 10 0 60155 54900.00000 0 -17439456.399 -9520050.724 16034992.272 10 0 60155 55800.00000 0 -18699764.850 -10839109.694 13586717.846 10 0 60155 56700.00000 0 -19830037.152 -11837396.369 10875197.181 10 0 60155 57600.00000 0 -20771280.319 -12520721.585 7952888.767 10 0 60155 58500.00000 0 -21468893.311 -12907098.892 4876372.384 10 0 60155 59400.00000 0 -21875037.950 -13025747.618 1705263.463 10 0 60155 60300.00000 0 -21950749.110 -12915632.569 -1498935.191 10 0 60155 61200.00000 0 -21667694.615 -12623601.414 -4674022.525 10 0 60155 62100.00000 0 -21009509.441 -12202197.948 -7758306.367 10 0 60155 63000.00000 0 -19972646.326 -11707243.400 -10691804.928 10 0 60155 63900.00000 0 -18566704.978 -11195288.082 -13417418.844 10 0 60155 64800.00000 0 -16814223.923 -10721041.537 -15882050.293 10 0 60155 65700.00000 0 -14749941.631 -10334890.573 -18037646.591 10 0 60155 66600.00000 0 -12419556.084 -10080611.183 -19842147.054 10 0 60155 67500.00000 0 -9878033.198 -9993372.293 -21260313.807 10 0 60155 68400.00000 0 -7187533.701 -10098117.044 -22264429.554 10 0 60155 69300.00000 0 -4415044.377 -10408391.428 -22834847.934 10 0 60155 70200.00000 0 -1629812.182 -10925671.008 -22960385.123 10 0 60155 71100.00000 0 1099311.817 -11639215.344 -22638544.483 10 0 60155 72000.00000 0 3706507.770 -12526457.174 -21875569.449 10 0 60155 72900.00000 0 6131491.557 -13553910.577 -20686323.322 10 0 60155 73800.00000 0 8321783.898 -14678560.094 -19093998.107 10 0 60155 74700.00000 0 10234649.383 -15849672.147 -17129658.110 10 0 60155 75600.00000 0 11838624.751 -17010951.959 -14831627.361 10 0 60155 76500.00000 0 13114573.285 -18102954.288 -12244733.228 10 0 60155 77400.00000 0 14056222.281 -19065645.364 -9419421.633 10 0 60155 78300.00000 0 14670162.702 -19841006.941 -6410761.983 10 0 60155 79200.00000 0 14975312.999 -20375571.610 -3277362.236 10 0 60155 80100.00000 0 15001871.938 -20622781.579 -80216.436 10 0 60155 81000.00000 0 14789806.927 -20545070.859 3118491.692 10 0 60155 81900.00000 0 14386943.940 -20115582.814 6256604.755 10 0 60155 82800.00000 0 13846741.753 -19319450.820 9273202.757 10 0 60155 83700.00000 0 13225846.138 -18154588.531 12109785.213 10 0 60155 84600.00000 0 12581528.482 -16631957.140 14711401.234 10 0 60155 85500.00000 0 11969117.488 -14775299.154 17027705.976 10 0 60156 0.00000 0 11439532.292 -12620350.644 19013923.616 10 0 60156 900.00000 0 11037020.140 -10213564.149 20631700.380 10 0 60156 1800.00000 0 10797193.542 -7610398.544 21849829.945 10 0 60156 2700.00000 0 10745447.303 -4873242.885 22644842.342 10 0 60156 3600.00000 0 10895821.364 -2069062.527 23001443.804 10 0 60156 4500.00000 0 11250355.789 733137.154 22912801.551 10 0 60156 5400.00000 0 11798964.188 3464925.769 22380668.913 10 0 60156 6300.00000 0 12519830.566 6061035.240 21415348.991 10 0 60156 7200.00000 0 13380313.111 8461814.296 20035497.719 10 0 60156 8100.00000 0 14338317.723 10615450.411 18267769.798 10 0 60156 9000.00000 0 15344084.774 12479868.902 16146313.531 10 0 60156 9900.00000 0 16342315.506 14024231.765 13712123.203 10 0 60156 10800.00000 0 17274550.245 15229975.052 11012260.130 10 0 60156 11700.00000 0 18081699.885 16091342.249 8098955.987 10 0 60156 12600.00000 0 18706625.225 16615391.603 5028614.373 10 0 60156 13500.00000 0 19096656.240 16821477.066 1860728.744 10 0 60156 14400.00000 0 19205945.263 16740224.284 -1343263.268 10 0 60156 15300.00000 0 18997554.376 16412044.186 -4521167.470 10 0 60156 16200.00000 0 18445187.951 15885246.327 -7611239.822 10 0 60156 17100.00000 0 17534495.686 15213831.142 -10553388.704 10 0 60156 18000.00000 0 16263889.263 14455054.136 -13290348.866 10 0 60156 18900.00000 0 14644836.007 13666865.015 -15768803.608 10 0 60156 19800.00000 0 12701614.886 12905330.335 -17940432.534 10 0 60156 20700.00000 0 10470542.909 12222149.269 -19762863.578 10 0 60156 21600.00000 0 7998702.412 11662368.318 -21200509.886 10 0 60156 22500.00000 0 5342220.883 11262392.560 -22225274.439 10 0 60156 23400.00000 0 2564174.127 11048378.490 -22817107.888 10 0 60156 24300.00000 0 -267800.474 11035077.356 -22964408.099 10 0 60156 25200.00000 0 -3084081.369 11225178.712 -22664253.079 10 0 60156 26100.00000 0 -5815723.492 11609182.616 -21922462.267 10 0 60156 27000.00000 0 -8397091.122 12165806.266 -20753484.725 10 0 60156 27900.00000 0 -10768352.968 12862908.082 -19180116.210 10 0 60156 28800.00000 0 -12877735.260 13658889.965 -17233050.634 10 0 60156 29700.00000 0 -14683438.841 14504518.041 -14950274.873 10 0 60156 30600.00000 0 -16155140.570 15345084.182 -12376319.088 10 0 60156 31500.00000 0 -17275016.930 16122815.938 -9561377.830 10 0 60156 32400.00000 0 -18038248.219 16779431.931 -6560319.927 10 0 60156 33300.00000 0 -18452983.801 17258733.563 -3431607.440 10 0 60156 34200.00000 0 -18539771.852 17509122.429 -236145.946 10 0 60156 35100.00000 0 -18330479.868 17485936.290 2963910.302 10 0 60156 36000.00000 0 -17866753.694 17153504.385 6106374.046 10 0 60156 36900.00000 0 -17198082.210 16486835.153 9130236.953 10 0 60156 37800.00000 0 -16379551.198 15472865.343 11976853.737 10 0 60156 38700.00000 0 -15469382.527 14111218.285 14591075.360 10 0 60156 39600.00000 0 -14526363.263 12414439.977 16922309.607 10 0 60156 40500.00000 0 -13607273.264 10407703.581 18925489.233 10 0 60156 41400.00000 0 -12764419.147 8127995.078 20561930.116 10 0 60156 42300.00000 0 -12043377.469 5622814.183 21800064.184 10 0 60156 43200.00000 0 -11481040.626 2948444.370 22616034.560 10 0 60156 44100.00000 0 -11104046.012 167863.241 22994142.973 10 0 60156 45000.00000 0 -10927652.836 -2651621.127 22927142.184 10 0 60156 45900.00000 0 -10955112.383 -5440911.386 22416368.877 10 0 60156 46800.00000 0 -11177557.162 -8131736.222 21471715.088 10 0 60156 47700.00000 0 -11574413.132 -10659233.382 20111438.932 10 0 60156 48600.00000 0 -12114317.764 -12964395.415 18361817.962 10 0 60156 49500.00000 0 -12756505.962 -14996278.599 16256651.077 10 0 60156 50400.00000 0 -13452606.619 -16713884.898 13836617.520 10 0 60156 51300.00000 0 -14148775.476 -18087639.936 11148503.958 10 0 60156 52200.00000 0 -14788075.831 -19100406.211 8244313.149 10 0 60156 53100.00000 0 -15313007.972 -19747989.556 5180270.049 10 0 60156 54000.00000 0 -15668081.513 -20039117.640 2015743.374 10 0 60156 54900.00000 0 -15802322.500 -19994891.016 -1187897.446 10 0 60156 55800.00000 0 -15671609.234 -19647729.219 -4368468.318 10 0 60156 56700.00000 0 -15240737.436 -19039855.575 -7464176.758 10 0 60156 57600.00000 0 -14485126.185 -18221383.977 -10414824.850 10 0 60156 58500.00000 0 -13392090.852 -17248087.839 -13162985.055 10 0 60156 59400.00000 0 -11961627.144 -16178945.188 -15655125.356 10 0 60156 60300.00000 0 -10206670.877 -15073563.543 -17842661.055 10 0 60156 61200.00000 0 -8152820.156 -13989593.664 -19682911.847 10 0 60156 62100.00000 0 -5837529.380 -12980241.861 -21139944.646 10 0 60156 63000.00000 0 -3308806.851 -12091986.604 -22185284.959 10 0 60156 63900.00000 0 -623468.948 -11362596.562 -22798482.116 10 0 60156 64800.00000 0 2154977.344 -10819534.459 -22967516.748 10 0 60156 65700.00000 0 4958735.873 -10478814.733 -22689041.972 10 0 60156 66600.00000 0 7718306.838 -10344363.677 -21968453.138 10 0 60156 67500.00000 0 10365148.560 -10407909.265 -20819784.471 10 0 60156 68400.00000 0 12834304.374 -10649405.246 -19265434.403 10 0 60156 69300.00000 0 15066884.730 -11037971.229 -17335724.961 10 0 60156 70200.00000 0 17012300.772 -11533308.326 -15068303.958 10 0 60156 71100.00000 0 18630156.103 -12087529.604 -12507402.036 10 0 60156 72000.00000 0 19891717.979 -12647326.734 -9702959.691 10 0 60156 72900.00000 0 20780907.099 -13156379.880 -6709642.141 10 0 60156 73800.00000 0 21294765.729 -13557907.542 -3585762.243 10 0 60156 74700.00000 0 21443386.106 -13797247.171 -392133.613 10 0 60156 75600.00000 0 21249304.119 -13824356.315 2809122.536 10 0 60156 76500.00000 0 20746385.909 -13596127.732 5955792.591 10 0 60156 77400.00000 0 19978256.405 -13078420.149 8986783.198 10 0 60156 78300.00000 0 18996337.991 -12247718.806 11843307.305 10 0 60156 79200.00000 0 17857583.483 -11092355.919 14470020.383 10 0 60156 80100.00000 0 16622000.002 -9613240.037 16816085.069 10 0 60156 81000.00000 0 15350068.427 -7824064.069 18836144.310 10 0 60156 81900.00000 0 14100166.755 -5750983.559 20491185.313 10 0 60156 82800.00000 0 12926104.905 -3431778.817 21749278.939 10 0 60156 83700.00000 0 11874873.131 -914535.648 22586181.859 10 0 60156 84600.00000 0 10984696.876 1744101.005 22985791.357 10 0 60156 85500.00000 0 10283477.819 4481028.907 22940445.433 99